Simultaneous Nadir Overpasses (SNOs) Predictions

Prediction of SNOs between GOES-15 and METOP-C Satellite Orbit:

Table of predicted SNOs for the next 14.0 days since TLE Epoch: 1/18/2020
Index Date Time (GOES-15) GOES-15 Lat,Lon METOP-C Lat,Lon Distance(km) Time Diff (sec)
1 01/18/2020 06:01:26 0.02,-128.44 0.14,-127.97 54.69 80
2 01/19/2020 18:22:39 -0.01,-128.42 0.88,-132.44 457.98 80
3 01/20/2020 17:59:08 -0.02,-128.42 -0.27,-127.40 116.30 80
4 01/22/2020 06:20:32 0.01,-128.43 -0.74,-131.93 397.62 80
5 01/23/2020 05:57:00 0.02,-128.43 0.36,-126.88 176.54 80
6 01/24/2020 18:18:13 -0.01,-128.40 0.62,-131.36 336.90 80
7 01/25/2020 17:54:42 -0.01,-128.39 -0.47,-126.31 237.11 80
8 01/27/2020 06:16:05 0.00,-128.40 -0.53,-130.84 277.01 80
9 01/28/2020 05:52:34 0.00,-128.40 0.57,-125.79 297.06 80
10 01/29/2020 18:13:47 0.01,-128.37 0.42,-130.27 216.73 80
11 01/30/2020 17:50:16 0.00,-128.36 -0.67,-125.22 356.95 80




NCC Satellite Simultaneous Nadir Overpasses (SNOs) Prediction Service
